Theta_e
300 299 297 295 295 296 295 293 293 293 291 290 289 289 289 289 289 288 288 288 288 288 288 288 287 287 287 287 287 287 287 287 286 286 286 285 285 285 284 284 284 284
300 299 297 296 296 296 295 294 292 292 291 291 290 289 289 288 288 288 287 287 288 288 288 287 287 287 287 287 287 287 287 287 286 286 285 285 285 285 284 284 284 284
299 297 296 295 295 295 294 294 293 292 292 291 290 289 288 288 288 288 288 287 287 287 287 287 287 287 287 287 287 287 287 286 286 286 286 285 285 285 285 284 284 284
299 298 296 296 296 295 295 294 294 293 293 291 290 289 289 288 288 287 287 286 287 286 287 287 287 287 287 287 287 287 287 286 287 286 286 285 285 285 285 285 284 284
299 298 297 297 297 297 295 294 294 293 292 291 291 290 288 287 287 287 286 285 286 286 286 287 287 287 287 286 286 286 286 286 286 286 286 285 285 285 285 285 284 284
300 299 298 297 297 296 295 294 294 293 292 291 290 289 288 288 287 286 286 286 286 286 286 286 286 286 286 286 286 286 286 286 286 286 286 285 285 285 285 285 284 283
299 299 298 298 297 296 295 295 295 294 293 292 290 289 288 287 287 286 286 286 286 285 286 286 286 286 286 286 286 286 286 286 286 285 285 286 286 285 285 285 284 283
300 299 298 298 298 297 295 294 294 293 293 291 290 289 288 287 286 286 286 287 286 285 285 286 286 286 286 286 285 285 285 286 286 285 285 285 286 285 285 285 284 284
300 299 299 298 297 296 295 295 295 295 294 292 291 290 287 286 285 285 285 286 285 285 285 285 285 286 286 286 285 285 285 285 285 285 285 285 285 285 285 285 284 284
300 300 299 298 297 297 297 296 296 295 294 293 292 290 287 286 285 285 285 284 284 284 285 285 285 285 285 285 285 285 285 285 285 285 285 285 285 285 285 284 284 284
300 299 298 298 298 299 297 296 295 294 292 292 291 288 286 285 284 284 284 284 284 284 284 284 285 285 285 285 285 286 285 285 285 285 285 285 285 286 285 285 284 284
300 299 298 299 298 298 297 295 294 293 291 291 290 288 286 285 284 284 285 285 284 284 283 284 284 284 284 285 285 285 285 285 285 285 285 285 285 285 285 285 285 285
299 299 299 299 298 297 297 296 294 292 291 289 289 288 287 286 286 285 285 284 283 283 283 283 283 283 284 284 285 285 284 284 284 284 285 285 285 285 285 285 285 285
300 300 299 299 300 298 297 296 294 292 291 289 288 288 287 286 285 284 284 283 283 282 283 283 283 283 283 284 284 284 284 284 284 284 284 284 285 285 285 285 285 285
300 300 301 298 298 298 297 295 294 292 291 289 288 287 287 286 286 285 284 283 283 283 282 282 282 282 282 283 283 283 284 284 284 284 284 284 284 284 284 284 284 285
300 300 300 300 299 297 296 295 294 292 291 289 288 287 287 287 286 285 284 283 282 281 281 281 281 282 283 284 284 283 284 284 284 284 284 284 284 284 284 284 284 284
300 300 300 299 299 298 297 294 293 292 291 289 288 287 287 286 286 284 283 283 282 282 281 281 281 282 283 285 285 285 284 284 284 284 284 283 283 284 284 284 283 284
299 300 300 300 299 298 298 296 294 292 291 289 288 287 287 286 285 284 283 283 283 282 282 281 281 282 284 285 286 286 285 284 284 284 284 284 283 283 284 284 284 284
298 299 299 299 298 298 297 296 294 293 291 290 288 288 286 285 285 284 283 283 283 283 282 282 281 283 284 285 286 286 286 284 284 284 284 284 284 283 284 284 284 284
298 299 299 298 298 297 297 296 294 293 292 292 290 288 286 286 285 285 285 284 283 283 282 282 282 283 285 285 286 286 287 286 284 283 284 284 284 284 284 284 284 284
299 298 298 297 297 297 296 295 294 294 293 292 290 288 287 285 285 284 284 284 283 283 283 283 283 284 285 285 286 286 287 287 285 284 283 284 284 284 284 284 285 285
298 298 297 296 296 296 295 294 294 293 292 291 290 289 288 287 287 286 286 286 285 284 283 284 284 286 286 286 286 287 287 287 286 285 284 283 284 284 284 285 285 285
297 296 295 295 295 294 293 293 293 292 292 291 289 288 288 287 287 286 286 286 285 283 283 283 283 284 286 286 286 287 287 286 286 286 286 284 284 284 284 284 284 284
297 297 296 294 293 293 293 293 293 293 292 292 290 289 288 288 288 287 286 286 285 284 284 283 283 284 285 286 286 287 286 286 286 286 286 286 285 285 285 285 284 283
297 296 295 294 293 293 293 293 293 293 292 292 291 290 289 288 288 287 287 285 285 286 284 283 284 284 285 286 286 287 287 286 286 286 286 286 286 286 286 286 285 284
296 296 295 295 295 294 294 293 293 292 292 290 290 290 290 289 287 287 286 286 286 286 285 285 285 286 286 286 287 287 287 286 286 286 285 286 286 286 287 286 286 286
Wind_Speed
9 8 8 7 7 7 7 7 6 6 7 6 6 6 6 5 6 6 5 4 4 4 5 4 4 3 2 2 2 1 2 2 2 2 3 3 4 3 3 2 2 1
11 9 7 6 6 6 5 6 6 7 6 6 5 5 5 5 6 6 6 5 4 4 5 5 4 4 3 3 3 2 2 2 3 2 3 4 4 4 3 3 2 1
10 9 8 8 7 6 6 5 5 5 5 5 5 5 5 6 7 7 6 6 6 5 5 5 5 5 4 3 3 2 2 3 3 3 3 3 3 3 3 3 2 1
8 6 7 8 7 6 6 6 5 5 5 5 7 6 6 6 7 7 6 7 6 6 5 6 6 5 5 4 4 2 2 3 3 3 3 3 3 3 3 2 2 1
9 8 7 8 8 7 7 7 8 7 6 5 5 6 6 7 7 7 7 7 7 7 6 7 6 6 5 5 5 3 4 4 4 4 3 3 3 3 3 2 2 2
8 8 9 9 8 8 8 9 9 7 7 7 7 6 7 8 7 8 8 8 7 7 7 7 7 6 6 5 5 4 5 4 4 4 3 3 4 4 3 3 3 3
11 10 11 8 8 9 9 9 8 7 7 6 6 7 7 8 8 8 9 8 8 8 8 8 8 7 6 5 5 6 5 5 4 5 5 4 4 5 4 4 4 4
11 8 7 7 9 8 8 7 7 7 7 6 8 7 7 7 8 7 8 9 8 8 8 8 8 8 7 6 7 6 6 4 5 6 6 5 4 5 6 4 4 4
9 9 9 10 10 9 10 9 8 8 8 8 8 6 6 6 8 8 8 8 7 7 8 8 8 8 8 8 8 8 7 6 6 6 6 6 6 6 6 5 5 5
10 10 11 10 11 10 10 9 8 8 8 8 8 6 7 6 6 7 7 8 8 8 9 8 9 8 8 8 9 8 8 7 7 7 6 6 6 6 6 6 6 5
11 10 11 12 12 9 9 8 7 6 6 8 7 7 6 6 6 6 8 9 9 10 9 9 9 9 9 9 8 7 8 7 7 7 7 7 6 6 6 6 6 6
12 11 12 13 11 8 9 9 8 7 7 6 7 7 6 7 8 8 9 10 9 9 9 9 9 9 10 9 9 8 7 7 7 7 7 7 7 6 6 6 6 6
13 13 12 12 11 9 8 7 8 8 9 9 7 7 9 9 9 9 7 6 6 6 7 8 9 9 9 9 9 9 8 8 8 8 8 7 7 7 6 7 6 6
11 11 9 8 7 8 10 10 9 9 9 8 8 9 8 9 10 10 7 7 7 7 7 7 8 8 9 9 8 9 8 9 8 8 8 8 7 7 7 7 7 7
8 8 7 9 8 8 8 11 10 9 8 10 10 10 7 6 6 6 7 7 6 7 8 7 8 9 8 9 9 9 8 9 9 9 8 8 7 7 7 7 7 7
8 9 9 9 9 10 12 10 10 10 10 10 11 9 10 9 7 7 7 8 9 9 8 7 8 6 10 14 11 8 9 8 8 8 9 8 8 7 7 8 8 8
10 10 10 11 11 9 8 8 8 6 7 9 10 11 10 11 7 8 8 9 10 9 10 9 8 7 14 15 16 14 10 8 9 8 8 9 8 8 8 8 8 8
9 9 11 12 10 10 10 8 7 8 8 8 11 10 8 7 9 10 9 9 8 9 10 9 8 11 16 18 18 17 13 9 7 8 7 8 8 8 8 7 7 7
9 10 11 11 10 9 8 7 9 9 9 9 10 8 6 9 10 8 9 8 9 11 11 9 7 12 17 19 18 18 17 12 8 8 8 9 8 9 8 8 7 7
9 9 10 9 8 8 8 10 10 11 10 8 6 8 9 9 9 11 9 10 10 10 8 8 9 13 19 19 17 18 17 14 9 9 9 9 10 9 8 9 9 8
10 10 9 9 9 9 9 11 11 9 9 8 8 9 9 9 9 10 9 8 8 8 9 10 10 14 18 20 19 19 18 15 10 9 9 9 9 10 10 10 9 8
11 11 13 9 9 9 10 10 9 9 9 7 7 6 6 5 6 7 8 11 9 8 8 11 10 13 17 19 19 18 18 11 10 10 10 10 9 10 10 9 9 9
8 8 7 8 8 8 8 8 8 8 7 6 6 6 8 8 8 7 7 8 9 9 12 11 9 13 16 16 18 19 15 10 10 9 9 10 10 10 10 10 9 10
12 11 10 6 6 8 9 8 7 6 6 8 9 9 9 9 7 7 8 9 10 12 11 10 8 10 18 18 18 19 16 11 10 9 10 10 10 10 9 9 11 13
10 9 7 7 7 8 8 8 8 8 6 6 7 6 7 5 8 7 7 7 9 11 12 11 8 9 16 18 17 18 16 11 10 7 9 9 9 10 10 9 9 11
7 9 9 9 9 9 6 9 6 5 7 8 7 7 6 6 6 7 8 9 9 10 10 11 11 10 13 19 18 20 21 13 9 8 10 11 8 9 6 7 8 9
Wind_Direction
178 179 176 178 186 192 186 183 170 183 197 191 184 178 177 181 168 175 172 165 167 157 151 143 134 135 148 177 194 181 153 135 134 128 130 111 105 102 100 94 63 51
183 182 173 174 189 189 177 166 171 189 192 193 181 157 158 161 172 174 165 164 171 169 153 142 145 156 174 192 191 197 166 162 146 159 141 123 117 124 121 128 125 115
181 180 172 180 188 183 169 168 172 191 195 190 171 165 160 168 168 175 164 162 169 169 158 149 156 169 184 201 194 205 193 178 172 163 152 143 134 136 132 152 138 185
185 172 167 182 191 182 167 171 188 201 191 179 190 182 163 170 167 162 160 165 165 169 163 161 167 173 185 191 196 216 197 207 185 167 160 150 151 151 151 150 151 183
176 176 169 186 194 182 168 184 194 197 190 188 181 168 167 168 168 165 163 169 171 168 170 169 171 177 184 189 194 207 207 214 190 186 181 167 164 167 164 172 172 199
181 180 181 189 189 177 182 192 195 185 181 181 190 178 181 171 168 165 167 172 176 169 171 173 176 180 185 189 192 212 209 219 193 195 196 187 174 178 172 187 191 210
188 188 189 184 181 183 187 191 189 177 182 182 168 187 176 173 172 167 172 176 173 171 173 178 180 181 182 184 200 211 215 221 199 196 204 206 188 183 184 189 207 217
192 188 179 183 189 194 189 182 186 176 172 168 187 190 176 173 165 161 171 175 174 172 175 183 184 181 176 183 198 209 214 214 210 202 208 213 202 197 187 190 205 218
186 189 189 193 193 195 194 191 189 184 176 181 191 180 176 165 170 167 171 171 167 171 177 184 187 183 179 186 197 207 211 212 212 209 210 213 210 205 191 188 200 214
194 194 190 193 197 200 196 195 189 185 175 188 192 177 177 177 169 170 167 166 169 177 183 184 186 189 185 190 196 201 210 214 214 215 215 218 219 208 196 191 201 211
201 194 193 198 200 196 189 179 181 170 168 186 177 179 174 159 168 165 174 178 183 182 181 186 188 190 191 191 194 198 207 215 217 220 220 222 222 220 207 199 202 216
200 198 199 201 194 177 174 184 186 192 182 185 178 179 175 180 177 181 186 189 186 177 177 182 186 193 198 195 191 192 200 214 221 224 226 222 222 222 214 208 211 214
199 200 201 200 190 178 169 175 181 184 174 182 170 174 179 186 190 191 195 184 175 160 175 181 185 194 201 199 193 188 196 207 219 225 228 225 223 220 218 216 215 219
200 201 196 198 184 175 185 186 184 183 176 178 180 190 185 185 185 188 184 179 176 177 183 182 188 196 202 200 195 191 190 203 211 222 225 226 222 219 219 219 219 220
194 198 188 200 195 186 187 190 186 178 170 184 191 199 191 185 181 169 163 178 181 187 188 189 196 201 198 194 192 194 193 196 206 215 222 225 224 219 217 219 221 223
187 195 199 199 197 202 206 198 190 183 180 180 182 184 186 171 184 183 186 183 182 189 191 192 205 203 203 205 200 189 189 194 199 212 216 223 223 221 217 215 221 222
197 200 199 203 206 203 199 199 190 166 173 170 171 190 191 187 175 179 193 194 191 186 194 202 209 206 200 205 205 196 194 195 199 205 211 218 222 223 224 217 217 221
196 198 203 209 202 201 200 184 174 180 186 181 169 183 181 158 186 196 195 196 194 198 203 206 208 204 198 206 208 203 199 199 198 205 207 214 218 221 226 222 220 216
196 203 209 207 202 193 181 172 187 191 194 189 198 184 133 184 196 187 195 191 193 201 209 206 211 190 203 207 209 209 205 200 210 207 210 214 214 218 222 223 221 219
201 208 211 205 190 182 181 190 193 199 198 194 167 168 190 194 193 199 199 197 197 202 205 206 215 203 201 205 209 211 209 201 218 213 218 220 216 215 219 222 220 219
206 205 205 197 191 191 189 195 198 197 191 189 183 186 189 194 189 196 199 193 197 200 213 218 222 201 200 204 208 208 209 202 215 217 221 224 221 219 222 222 220 220
204 207 212 200 192 191 194 200 199 197 195 183 185 189 198 185 199 195 198 205 204 199 212 227 226 196 198 203 204 206 205 207 217 218 219 222 223 221 222 221 220 221
191 195 195 195 191 191 196 197 191 196 198 160 177 193 198 203 204 193 192 195 196 198 212 226 228 203 198 199 205 204 198 211 217 223 223 220 224 223 221 220 216 216
210 207 207 190 176 194 200 202 193 186 183 176 192 192 200 201 191 191 195 197 200 208 210 220 226 202 201 202 201 201 199 207 216 221 226 222 226 223 221 220 219 211
209 203 197 187 189 199 196 196 195 197 180 171 196 191 197 170 196 200 202 201 208 219 214 220 234 218 199 204 197 199 198 213 216 220 224 224 221 226 217 221 223 212
196 201 203 199 201 201 190 207 197 183 182 186 194 195 196 187 187 195 209 217 214 221 221 218 226 231 203 205 197 198 198 206 214 215 221 221 217 225 220 215 217 221